Weather in Iznosky

Russia / Kaluga Oblast     54°59′19″N   35°19′00″E
temp.,
°C
wind,
m/s
gust,
m/s
humid.,
%
clouds,
%
prec.,
mm/h
press.,
hPa
HPBL,
m
9 may, sun
sun900:00+4nw51295100 2.1 10061095
03:00+3nw61291100 4.3 1009905
06:00+2nw61294100 0.8 1011922
09:00+3nw61192100 1.4 1014963
12:00+8nnw61064100 0.2 10161684
15:00+11nnw5948100 0.3 10172449
18:00+11nw49505 0.0 10192177
21:00+5nw38785 0.0 1023156
10 may, mon
mon1000:00+2nw26774 0.0 1025100
03:00+1nnw24752 0.0 102779
06:00+2n23715 0.0 102975
09:00+10nne12475 0.0 1029507
12:00+14n22355 0.0 10291462
15:00+15n22335 0.0 10281754
18:00+14nne23482 0.0 1028465
21:00+7ne22710 0.0 103011
11 may, tue
tue1100:00+6ene22710 0.0 103029
03:00+4ene22770 0.0 103127
06:00+5ene27795 0.0 1031148
09:00+12ene48525 0.0 1030667
12:00+16ene574093 0.0 10291105
15:00+17e46415 0.0 10281152
18:00+16e36575 0.0 1027914
21:00+10ene268461 0.0 1028110
12 may, wed
wed1200:00+9ene388627 0.0 1027146
03:00+8ene311860 0.0 1026241
06:00+9ene312875 0.0 1025323
09:00+15ene5107322 0.0 1023643
12:00+14e61485100 0.3 10221155
15:00+10s499324 1.9 1023463
18:00+14se367377 0.0 10241044
21:00+9e119363 0.0 102410
13 may, thu
thu1300:00+10ne2591100 0.0 1022118
03:00+11ne3996100 0.2 1019304
06:00+13e41198100 5.7 1017754
09:00+13ese5119599 9.9 1017780
12:00+13ese5109699 4.8 1017705
15:00+17se597761 5.7 10151143
18:00+16se498079 1.0 1016941
21:00+13se2894100 1.5 1016202